Flag for U.S.A. Weather past 2 weeks in Stockton, California, U.S.A.

Now
61 °F

Clear.


Feels Like: 61 °F
Forecast: 62 / 88 °F
Wind: 5 mph from North

Location: Stockton Metropolitan Airport

Current Time: Jul 6, 2015 at 5:31:28 AM

Latest Report: Jul 6, 2015 at 4:55 AM


Visibility: 10 mi

Pressure: 29.98 "Hg

Humidity: 87%

Dew point: 57 °F

Location of StocktonLocation

Historic Weather in Stockton — Graph

°F

Stockton temperature yesterday

Maximum temperature yesterday: 89 °F (at 2:55 PM)
Minimum temperature yesterday: 62 °F (at 5:55 AM)
Average temperature yesterday: 76 °F

Past Weeks' High & Low Weather Summary

 TemperatureHumidityPressure
High106 °F (Jun 30, 4:55 PM)90% (Jun 29, 5:55 AM)30.01 "Hg (Jun 29, 5:55 AM)
Low55 °F (Jun 22, 5:55 AM)12% (Jun 30, 7:55 PM)29.72 "Hg (Jul 4, 5:55 PM)
Average79 °F45%29.87 "Hg
* Reported Jun 21 3:55 AM — Jul 6 3:55 AM, Stockton, Weather by CustomWeather, © 2015

Note: Actual official high and low records may vary slightly from our data, if they occured in-between our weather recording intervals... More about our weather records

Advertising

Stockton weather history for previous 24 hours

 ConditionsComfort  
Time TempWeatherWind HumidityBarometerVisibility
3:55 AM
Mon, Jul 6
64 °FClear.5 mph78%29.96 "Hg10 mi
2:55 AM64 °FClear.10 mph78%29.96 "Hg10 mi
1:55 AM66 °FClear.14 mph73%29.95 "Hg10 mi
12:55 AM66 °FClear.10 mph73%29.95 "Hg10 mi
11:55 PM
Sun, Jul 5
68 °FClear.12 mph68%29.93 "Hg10 mi
10:55 PM71 °FClear.12 mph59%29.92 "Hg10 mi
9:55 PM74 °FClear.13 mph53%29.89 "Hg10 mi
8:55 PM77 °FSunny.13 mph48%29.88 "Hg10 mi
7:55 PM81 °FSunny.12 mph44%29.86 "Hg10 mi
6:55 PM84 °FSunny.14 mph40%29.85 "Hg10 mi
5:55 PM87 °FSunny.14 mph37%29.83 "Hg10 mi
4:55 PM89 °FSunny.12 mph38%29.83 "Hg10 mi
3:55 PM89 °FSunny.12 mph39%29.84 "Hg10 mi
2:55 PM89 °FSunny.8 mph39%29.85 "Hg10 mi
1:55 PM88 °FSunny.6 mph39%29.87 "Hg10 mi
12:55 PM85 °FSunny.7 mph45%29.89 "Hg10 mi
11:55 AM83 °FSunny.8 mph44%29.90 "Hg10 mi
10:55 AM80 °FSunny.8 mph49%29.90 "Hg10 mi
9:55 AM76 °FSunny.6 mph56%29.90 "Hg10 mi
8:55 AM72 °FSunny.6 mph66%29.90 "Hg10 mi
7:55 AM68 °FSunny.5 mph73%29.88 "Hg10 mi
6:55 AM64 °FSunny.6 mph81%29.86 "Hg10 mi
5:55 AM62 °FClear.7 mph86%29.85 "Hg10 mi
Weather by CustomWeather, © 2015

See weather overviewHow to use our weather pages